Location: Bédeille
(43.0872°N, 1.1041°E)
Time: 12:22:53
(UTC+00:00)

Cosmos 2322 Rocket - Pass Details

Date: 03 February 2023
Orbit: 832 x 851 km, 71.0° (Epoch: 20 March)

Event Time Altitude Azimuth Distance (km) Brightness Sun altitude
Rises 18:12:45 0° 201° (SSW) 3,362 5.8 -11.7°
Reaches altitude 10° 18:15:10 10° 201° (SSW) 2,432 5.0 -12.2°
Maximum altitude 18:20:45 87° 113° (ESE) 839 2.1 -13.2°
Drops below altitude 10° 18:26:23 10° 25° (NNE) 2,451 4.3 -14.2°
Enters shadow 18:28:12 - 26° (NNE) 3,146 4.8 -14.5°
